Location: Bougoudala
(13.2282°N, 4.9477°W)
Time: 20:59:23
(UTC+00:00)

Atlas Centaur 2 - Pass Details

Date: 29 January 2020
Orbit: 459 x 1310 km, 30.4° (Epoch: 27 February)

Event Time Altitude Azimuth Distance (km) Brightness Sun altitude
Rises 20:30:02 0° 313° (NW) 2,874 5.4 -31.6°
Reaches altitude 10° 20:32:23 10° 324° (NW) 2,086 4.5 -32.1°
Enters shadow 20:32:39 11° 326° (NW) 2,007 4.4 -32.2°
